Location: Unspecified
(51.5147°N, 7.4673°E)
Time: 02:49:29
(UTC+01:00)

A-11 Canister half - Pass Details

Date: 18 February 2026
Orbit: 1513 x 1687 km, 47.2° (Epoch: 13 March)

Event Time Altitude Azimuth Distance (km) Brightness Sun altitude
Rises 04:02:55 0° 287° (WNW) 4,868 - -33.5°
Reaches altitude 10° 04:06:34 10° 278° (W) 3,854 - -33.0°
Maximum altitude 04:14:33 30° 222° (SW) 2,553 - -31.9°
Exits shadow 04:19:40 19° 179° (S) 3,108 10.4 -31.1°
Drops below altitude 10° 04:22:20 10° 166° (SSE) 3,728 10.9 -30.8°
Sets 04:25:49 0° 156° (SSE) 4,687 11.6 -30.3°
